time_stamp(utc),avg(mph),gust(mph),direction(deg),12m_air_temp(f),sonic_u(cm/s),sonic_v(cm/s),sonic_w(cm/s),pressure,2m_air_temp(f),pyranometer(W/m^2)
"2018-01-18 00:02:42+00",19.7,21.7,,25.6,-645,596,53,1022.84,25.7,0
"2018-01-18 00:07:42+00",16.6,18.6,,25.7,-529,510,44,1023.01,25.8,0
"2018-01-18 00:12:42+00",18.8,21.8,,25.6,-511,642,61,1022.99,25.6,0
"2018-01-18 00:17:42+00",17.6,18.6,,25.6,-574,532,48,1023.22,25.6,0
"2018-01-18 00:22:42+00",14.5,16.5,,25.6,-427,472,46,1023.18,25.6,0
"2018-01-18 00:27:42+00",17.5,19.5,,25.6,-630,498,72,1023.25,25.6,0
"2018-01-18 00:32:42+00",14.4,16.4,,25.5,-477,428,53,1023.13,25.5,0
"2018-01-18 00:37:42+00",15.2,17.2,,25.4,-434,512,43,1023.18,25.5,0
"2018-01-18 00:42:42+00",13.3,15.3,,25.4,-393,447,59,1022.97,25.4,0
"2018-01-18 00:47:42+00",17.5,19.5,,25.3,-516,569,38,1022.82,25.4,0
"2018-01-18 00:52:42+00",14.2,16.2,,25.3,-407,472,46,1022.68,25.3,0
"2018-01-18 00:57:42+00",17.2,19.2,,25.3,-413,620,37,1022.53,25.3,0
"2018-01-18 01:02:42+00",17.1,19.1,,25.2,-405,632,32,1022.27,25.2,0
"2018-01-18 01:07:42+00",15.1,16.1,,25.2,-443,502,44,1022.44,25.2,0
"2018-01-18 01:12:42+00",16.0,18.0,,25.2,-426,562,37,1022.6,25.2,0
"2018-01-18 01:17:42+00",14.1,16.1,,25.2,-331,529,51,1022.55,25.2,0
"2018-01-18 01:22:42+00",14.5,18.5,,25.2,-425,480,62,1022.74,25.1,0
"2018-01-18 01:27:42+00",12.0,14.0,,25.2,-298,433,45,1022.85,25.2,0
"2018-01-18 01:32:42+00",15.9,16.9,,25.1,-392,574,31,1022.89,25.1,0
"2018-01-18 01:37:42+00",15.9,16.9,,25.1,-463,529,38,1022.98,25,0
"2018-01-18 01:42:42+00",14.3,18.3,,25.1,-346,525,53,1022.82,25,0
"2018-01-18 01:47:42+00",17.2,18.2,,25.1,-499,572,52,1023,25.1,0
"2018-01-18 01:52:42+00",18.4,20.4,,25,-489,649,50,1022.94,25,0
"2018-01-18 01:57:42+00",21.8,24.8,,25,-543,792,32,1022.75,25,0
"2018-01-18 02:02:42+00",21.8,24.8,,24.8,-579,762,54,1022.7,24.8,0
"2018-01-18 02:07:42+00",18.3,20.3,,24.8,-546,605,57,1023.16,24.8,0
"2018-01-18 02:12:42+00",20.2,22.2,,24.8,-577,691,62,1022.95,24.8,0
"2018-01-18 02:17:42+00",15.9,17.9,,24.7,-361,602,43,1022.78,24.7,0
"2018-01-18 02:22:42+00",24.8,27.8,,24.4,-410,1021,50,1022.46,24.5,0
"2018-01-18 02:27:42+00",20.0,22.0,,24.4,-367,792,42,1022.65,24.4,0
"2018-01-18 02:32:42+00",17.9,23.9,,24.3,-333,703,54,1022.62,24.3,0
"2018-01-18 02:37:42+00",22.7,23.7,,24.1,-431,897,41,1022.51,24.2,0
"2018-01-18 02:42:42+00",16.4,19.4,,24.1,-355,629,59,1022.72,24.1,0
"2018-01-18 02:47:42+00",22.6,29.6,,24.1,-407,881,39,1022.62,24.1,0
"2018-01-18 02:52:42+00",16.8,19.8,,24,-276,678,55,1022.6,24,0
"2018-01-18 02:57:42+00",17.1,20.1,,24,-409,633,60,1022.69,24,0
"2018-01-18 03:02:42+00",18.2,21.2,,24,-385,711,45,1022.96,23.9,0
"2018-01-18 03:07:42+00",15.8,17.8,,24,-346,603,66,1022.99,23.9,0
"2018-01-18 03:12:42+00",19.7,21.7,,23.9,-464,736,50,1022.94,23.9,0
"2018-01-18 03:17:42+00",16.0,20.0,,23.8,-391,579,70,1023.06,23.8,0
"2018-01-18 03:22:42+00",17.9,20.9,,23.8,-424,669,49,1023.02,23.8,0
"2018-01-18 03:27:42+00",18.2,21.2,,23.7,-402,692,35,1022.94,23.7,0
"2018-01-18 03:32:42+00",18.0,21.0,,23.7,-405,678,37,1022.84,23.7,0
"2018-01-18 03:37:42+00",21.1,24.1,,23.6,-483,799,38,1022.66,23.6,0
"2018-01-18 03:42:42+00",20.3,22.3,,23.5,-482,754,51,1022.63,23.6,0
"2018-01-18 03:47:42+00",20.2,26.2,,23.5,-381,813,59,1022.51,23.5,0
"2018-01-18 03:52:42+00",18.9,21.9,,23.4,-397,737,49,1022.42,23.4,0
"2018-01-18 03:57:42+00",20.6,23.6,,23.4,-301,858,36,1022.55,23.4,0
"2018-01-18 04:02:42+00",20.0,22.0,,23.3,-413,782,44,1022.45,23.3,0
"2018-01-18 04:07:42+00",17.2,20.2,,23.3,-291,691,56,1022.12,23.2,0
"2018-01-18 04:12:42+00",17.2,19.2,,23.1,-371,660,42,1022.28,23.2,0
"2018-01-18 04:17:42+00",19.0,22.0,,23,-351,753,59,1022.15,23.1,0
"2018-01-18 04:22:42+00",22.3,27.3,,23,-434,885,63,1022.12,23,0
"2018-01-18 04:27:42+00",20.3,22.3,,23,-470,771,67,1022.24,23,0
"2018-01-18 04:32:42+00",18.4,20.4,,22.9,-308,745,42,1022,22.9,0
"2018-01-18 04:37:42+00",16.7,17.7,,22.9,-406,617,49,1022.26,22.9,0
"2018-01-18 04:42:42+00",18.2,21.2,,22.8,-461,671,50,1022.41,22.8,0
"2018-01-18 04:47:42+00",21.9,24.9,,22.7,-483,839,49,1022.11,22.8,0
"2018-01-18 04:52:42+00",22.8,25.8,,22.7,-376,938,48,1022.3,22.8,0
"2018-01-18 04:57:42+00",22.3,27.3,,22.6,-505,859,60,1021.97,22.7,0
"2018-01-18 05:02:42+00",23.6,25.6,,22.6,-537,902,43,1021.91,22.6,0
"2018-01-18 05:07:42+00",20.1,24.1,,22.6,-522,728,92,1022.1,22.7,0
"2018-01-18 05:12:42+00",21.3,24.3,,22.7,-587,753,75,1022.27,22.7,0
"2018-01-18 05:17:42+00",20.8,24.8,,22.7,-582,738,67,1022.12,22.8,0
"2018-01-18 05:22:42+00",21.7,26.7,,22.5,-541,808,76,1021.95,22.6,0
"2018-01-18 05:27:42+00",23.3,26.3,,22.5,-572,871,56,1021.85,22.6,0
"2018-01-18 05:32:42+00",24.5,30.5,,22.5,-673,860,83,1021.63,22.6,0
"2018-01-18 05:37:42+00",25.4,29.4,,22.4,-577,970,40,1021.36,22.5,0
"2018-01-18 05:42:42+00",23.6,25.6,,22.3,-588,870,60,1021.3,22.4,0
"2018-01-18 05:47:42+00",23.0,25.0,,22.2,-565,849,52,1020.97,22.3,0
"2018-01-18 05:52:42+00",23.3,26.3,,22.2,-559,864,45,1021.13,22.3,0
"2018-01-18 05:57:42+00",20.7,25.7,,22.1,-589,704,66,1021.02,22.2,0
"2018-01-18 06:02:42+00",20.0,25.0,,22.1,-494,740,64,1021.06,22.1,0
"2018-01-18 06:07:42+00",20.8,21.8,,21.9,-562,739,47,1021.07,22,0
"2018-01-18 06:12:42+00",21.7,23.7,,21.8,-458,841,34,1021.03,21.9,0
"2018-01-18 06:17:42+00",21.6,24.6,,21.7,-576,779,49,1021.03,21.7,0
"2018-01-18 06:22:42+00",20.0,22.0,,21.5,-512,718,38,1021,21.6,0
"2018-01-18 06:27:42+00",17.4,20.4,,21.4,-383,675,38,1021.01,21.5,0
"2018-01-18 06:32:42+00",17.4,19.4,,21.5,-476,623,74,1021.03,21.5,0
"2018-01-18 06:37:42+00",21.9,23.9,,21.3,-591,770,40,1020.96,21.4,0
"2018-01-18 06:42:42+00",17.1,20.1,,21.3,-489,587,42,1020.93,21.3,0
"2018-01-18 06:47:42+00",15.7,20.7,,21.3,-400,580,44,1020.78,21.3,0
"2018-01-18 06:52:42+00",21.8,24.8,,21,-577,781,63,1020.31,21.1,0
"2018-01-18 06:57:42+00",21.0,23.0,,20.8,-567,743,58,1020.26,20.9,0
"2018-01-18 07:02:42+00",19.4,21.4,,20.8,-555,664,81,1020.15,20.7,0
"2018-01-18 07:07:42+00",23.4,26.4,,20.5,-525,898,38,1019.89,20.5,0
"2018-01-18 07:12:42+00",18.1,22.1,,20.3,-427,678,89,1019.98,20.3,0
"2018-01-18 07:17:42+00",19.7,22.7,,20.2,-457,734,35,1020.01,20.2,0
"2018-01-18 07:22:42+00",20.1,24.1,,20.2,-411,785,36,1019.73,20,0
"2018-01-18 07:27:42+00",17.5,20.5,,20,-363,684,32,1019.63,20,0
"2018-01-18 07:32:42+00",17.6,21.6,,20.1,-411,671,57,1019.54,20,0
"2018-01-18 07:37:42+00",17.2,19.2,,20,-307,687,35,1019.76,20,0
"2018-01-18 07:42:42+00",13.8,15.8,,20,-309,521,46,1019.92,20,0
"2018-01-18 07:47:42+00",17.0,19.0,,20,-393,649,51,1019.75,20,0
"2018-01-18 07:52:42+00",17.7,20.7,,20,-417,664,39,1019.84,20,0
"2018-01-18 07:57:42+00",19.2,23.2,,19.9,-396,757,33,1019.68,20,0
"2018-01-18 08:02:42+00",20.7,23.7,,19.9,-417,809,55,1019.46,19.9,0
"2018-01-18 08:07:42+00",20.0,25.0,,19.8,-417,784,45,1019.43,19.9,0
"2018-01-18 08:12:42+00",20.0,23.0,,19.9,-464,758,41,1019.24,19.9,0
"2018-01-18 08:17:42+00",21.9,24.9,,19.8,-374,889,38,1018.97,19.8,0
"2018-01-18 08:22:42+00",17.3,22.3,,19.7,-264,711,61,1018.61,19.7,0
"2018-01-18 08:27:42+00",23.6,27.6,,19.6,-320,982,33,1018.28,19.6,0
"2018-01-18 08:32:42+00",21.3,27.3,,19.5,-373,872,40,1018.52,19.5,0
"2018-01-18 08:37:42+00",17.9,20.9,,19.5,-282,732,45,1018.89,19.4,0
"2018-01-18 08:42:42+00",19.7,22.7,,19.6,-327,805,29,1018.68,19.5,0
"2018-01-18 08:47:42+00",19.7,25.7,,19.6,-322,806,39,1018.31,19.4,0
"2018-01-18 08:52:42+00",20.4,24.4,,19.6,-320,835,43,1018.2,19.4,0
"2018-01-18 08:57:42+00",20.5,23.5,,19.5,-381,828,60,1017.92,19.4,0
"2018-01-18 09:02:42+00",19.6,25.6,,19.6,-373,775,67,1017.86,19.4,0
"2018-01-18 09:07:42+00",23.6,26.6,,19.5,-429,942,28,1017.93,19.4,0
"2018-01-18 09:12:42+00",23.3,26.3,,19.6,-513,901,54,1017.48,19.4,0
"2018-01-18 09:17:42+00",22.1,25.1,,19.6,-464,861,58,1017.34,19.5,0
"2018-01-18 09:22:42+00",23.0,28.0,,19.6,-469,901,60,1017.6,19.5,0
"2018-01-18 09:27:42+00",18.1,22.1,,19.6,-361,729,31,1017.89,19.4,0
"2018-01-18 09:32:42+00",16.8,20.8,,19.6,-334,666,20,1018.15,19.4,0
"2018-01-18 09:37:42+00",19.0,24.0,,19.5,-357,762,46,1018.02,19.4,0
"2018-01-18 09:42:42+00",17.9,21.9,,19.5,-321,713,54,1018.03,19.4,0
"2018-01-18 09:47:42+00",17.4,20.4,,19.5,-311,705,44,1018.05,19.4,0
"2018-01-18 09:52:42+00",15.5,17.5,,19.4,-220,629,13,1018.44,19.3,0
"2018-01-18 09:57:42+00",19.1,22.1,,19.4,-448,720,47,1018.63,19.3,0
"2018-01-18 10:02:42+00",16.5,19.5,,19.5,-520,523,48,1018.99,19.4,0
"2018-01-18 10:07:42+00",15.4,17.4,,19.5,-493,483,58,1019.37,19.5,0
"2018-01-18 10:12:42+00",14.6,15.6,,19.6,-509,409,59,1019.75,19.6,0
"2018-01-18 10:17:42+00",16.5,18.5,,19.5,-595,446,45,1019.84,19.7,0
"2018-01-18 10:22:42+00",17.3,20.3,,19.5,-600,485,43,1020.02,19.6,0
"2018-01-18 10:27:42+00",16.8,18.8,,19.5,-588,478,69,1020.07,19.6,0
"2018-01-18 10:32:42+00",16.9,19.9,,19.4,-625,433,69,1020.18,19.6,0
"2018-01-18 10:37:42+00",17.0,19.0,,19.4,-615,451,65,1020.34,19.6,0
"2018-01-18 10:42:42+00",17.4,19.4,,19.4,-611,488,58,1020.29,19.6,0
"2018-01-18 10:47:42+00",20.8,22.8,,19.2,-724,581,43,1020.01,19.6,0
"2018-01-18 10:52:42+00",21.8,23.8,,19.4,-720,653,64,1019.82,19.6,0
"2018-01-18 10:57:42+00",21.6,25.6,,19.4,-645,728,51,1019.47,19.6,0
"2018-01-18 11:02:42+00",23.6,28.6,,19.3,-718,771,64,1019.17,19.6,0
"2018-01-18 11:07:42+00",21.2,23.2,,19.3,-650,678,89,1019.21,19.5,0
"2018-01-18 11:12:42+00",20.8,23.8,,19.2,-715,609,69,1019.37,19.5,0
"2018-01-18 11:17:42+00",23.0,25.0,,19.1,-748,702,61,1019.16,19.4,0
"2018-01-18 11:22:42+00",23.5,25.5,,19,-766,730,49,1018.94,19.4,0
"2018-01-18 11:27:42+00",24.6,27.6,,19,-757,798,68,1018.75,19.4,0
"2018-01-18 11:32:42+00",23.7,26.7,,19,-701,783,60,1018.46,19.4,0
"2018-01-18 11:37:42+00",22.6,25.6,,19.1,-654,745,78,1018.12,19.3,0
"2018-01-18 11:42:42+00",23.3,27.3,,18.9,-602,849,71,1017.82,19.2,0
"2018-01-18 11:47:42+00",24.5,29.5,,18.8,-632,905,86,1017.31,19,0
"2018-01-18 11:52:42+00",24.2,28.2,,18.8,-666,854,88,1017.47,19,0
"2018-01-18 11:57:42+00",24.8,27.8,,19,-701,866,55,1017.7,19.1,0
"2018-01-18 12:02:42+00",25.3,28.3,,19.2,-652,912,84,1017.78,19.3,0
"2018-01-18 12:07:42+00",26.5,30.5,,19.1,-721,921,69,1017.69,19.1,0
"2018-01-18 12:12:42+00",21.5,25.5,,19.3,-590,757,51,1017.92,19.3,0
"2018-01-18 12:17:42+00",24.5,28.5,,19.3,-641,877,56,1017.9,19.3,0
"2018-01-18 12:22:42+00",22.7,25.7,,19.2,-567,824,66,1017.86,19.3,0
"2018-01-18 12:27:42+00",24.0,27.0,,19.6,-673,834,72,1017.93,19.5,0
"2018-01-18 12:32:42+00",26.3,29.3,,19.4,-684,950,53,1017.9,19.5,0
"2018-01-18 12:37:42+00",26.0,29.0,,19.6,-723,898,60,1018.05,19.7,0
"2018-01-18 12:42:42+00",25.8,31.8,,19.6,-766,861,94,1018.34,19.7,0
"2018-01-18 12:47:42+00",22.8,26.8,,19.6,-700,718,69,1018.49,19.7,0
"2018-01-18 12:52:42+00",23.3,25.3,,19.8,-747,734,61,1018.73,19.9,0
"2018-01-18 12:57:42+00",21.9,24.9,,19.8,-704,681,78,1018.93,20,0
"2018-01-18 13:02:42+00",21.4,26.4,,19.8,-591,749,60,1019.15,19.9,0
"2018-01-18 13:07:42+00",20.8,23.8,,20,-609,713,67,1019.38,20,0
"2018-01-18 13:12:42+00",21.1,24.1,,19.8,-653,676,54,1019.51,20,0.3
"2018-01-18 13:17:42+00",19.2,21.2,,19.9,-546,661,45,1019.82,20.1,0.6
"2018-01-18 13:22:42+00",17.6,20.6,,20.2,-551,576,66,1019.99,20.5,72.2
"2018-01-18 13:27:42+00",14.9,16.9,,20.4,-441,497,61,1020.07,21.1,80.3
"2018-01-18 13:32:42+00",17.5,19.5,,20.5,-452,631,39,1020.09,21.3,89.2
"2018-01-18 13:37:42+00",15.3,17.3,,20.6,-439,520,30,1020.3,21.6,99.7
"2018-01-18 13:42:42+00",14.3,16.3,,20.8,-363,510,23,1020.33,21.8,111.5
"2018-01-18 13:47:42+00",13.2,14.2,,21.1,-349,475,54,1020.23,22.1,118.7
"2018-01-18 13:52:42+00",14.0,16.0,,21.1,-413,473,52,1020.15,22.3,107.2
"2018-01-18 13:57:42+00",14.3,16.3,,21.2,-354,522,69,1019.96,22.4,123.1
"2018-01-18 14:02:42+00",17.2,20.2,,21.6,-479,594,63,1019.95,22.6,139.1
"2018-01-18 14:07:42+00",17.0,20.0,,21.7,-489,574,67,1019.81,22.8,155.4
"2018-01-18 14:12:42+00",16.3,19.3,,22.1,-412,599,54,1019.79,23.1,161.7
"2018-01-18 14:17:42+00",17.1,19.1,,22.5,-495,582,47,1019.68,23.5,168.7
"2018-01-18 14:22:42+00",19.0,23.0,,22.4,-537,648,46,1019.63,23.5,175
"2018-01-18 14:27:42+00",17.6,20.6,,22.9,-438,650,35,1019.49,23.8,183.9
"2018-01-18 14:32:42+00",19.2,21.2,,23.3,-554,652,58,1019.41,24.2,191.5
"2018-01-18 14:37:42+00",19.0,20.0,,23.6,-555,653,57,1019.36,24.6,197.1
"2018-01-18 14:42:42+00",18.7,21.7,,24,-552,640,58,1019.15,24.9,199.5
"2018-01-18 14:47:42+00",21.5,23.5,,24.3,-549,782,52,1018.88,25.2,209.2
"2018-01-18 14:52:42+00",20.5,22.5,,24.7,-559,721,60,1018.71,25.6,210.3
"2018-01-18 14:57:42+00",22.9,26.9,,24.9,-505,874,77,1018.59,25.8,219.6
"2018-01-18 15:02:42+00",21.4,23.4,,25.2,-549,778,49,1018.44,26.2,218.8
"2018-01-18 15:07:42+00",25.4,27.4,,25.3,-609,943,47,1018.23,26.2,230.4
"2018-01-18 15:12:42+00",18.7,20.7,,25.9,-433,711,54,1018.09,26.7,230.8
"2018-01-18 15:17:42+00",21.2,25.2,,25.9,-527,791,64,1017.99,27,240.3
"2018-01-18 15:22:42+00",21.2,23.2,,26.1,-541,765,62,1017.91,27.1,248
"2018-01-18 15:27:42+00",22.6,24.6,,26.2,-686,750,63,1017.85,27.2,248.6
"2018-01-18 15:32:42+00",19.9,21.9,,26.2,-580,671,98,1017.94,27.1,254
"2018-01-18 15:37:42+00",23.9,26.9,,26.4,-710,796,74,1017.87,27.4,258
"2018-01-18 15:42:42+00",25.6,34.6,,26.6,-730,872,87,1017.8,27.5,262.1
"2018-01-18 15:47:42+00",22.9,26.9,,26.7,-446,919,64,1017.67,27.7,265.4
"2018-01-18 15:52:42+00",23.1,26.1,,26.8,-668,790,89,1017.49,27.9,269.5
"2018-01-18 15:57:42+00",26.6,30.6,,26.7,-632,1006,73,1017.35,27.8,271.7
"2018-01-18 16:02:42+00",26.5,28.5,,27,-727,936,60,1017.2,28,274.7
"2018-01-18 16:07:42+00",27.1,32.1,,27.2,-703,983,84,1016.92,28.3,277.1
"2018-01-18 16:12:42+00",26.8,30.8,,27.2,-693,962,45,1016.84,28.3,277.9
"2018-01-18 16:17:42+00",27.2,31.2,,27.5,-846,880,73,1016.71,28.5,281.7
"2018-01-18 16:22:42+00",25.7,27.7,,27.3,-818,810,75,1016.71,28.3,283.4
"2018-01-18 16:27:42+00",24.0,28.0,,27.5,-731,798,59,1016.7,28.4,287.6
"2018-01-18 16:32:42+00",22.8,26.8,,27.7,-657,765,61,1016.7,28.7,287.6
"2018-01-18 16:37:42+00",23.6,28.6,,28,-675,806,87,1016.48,29,289
"2018-01-18 16:42:42+00",21.6,24.6,,28.3,-531,798,73,1016.35,29.3,292.4
"2018-01-18 16:47:42+00",21.8,22.8,,28.3,-633,740,68,1016.21,29.5,290
"2018-01-18 16:52:42+00",21.7,24.7,,28.4,-662,712,43,1016.14,29.5,293.9
"2018-01-18 16:57:42+00",21.1,24.1,,28.6,-613,707,47,1016.03,29.7,292.9
"2018-01-18 17:02:42+00",21.6,24.6,,28.9,-673,693,60,1015.77,29.9,295
"2018-01-18 17:07:42+00",24.6,26.6,,29.2,-739,810,61,1015.49,30.1,293.7
"2018-01-18 17:12:42+00",23.3,27.3,,29.4,-746,743,61,1015.38,30.4,295.7
"2018-01-18 17:17:42+00",22.7,24.7,,29.6,-702,731,72,1015.29,30.5,297.1
"2018-01-18 17:22:42+00",23.2,26.2,,29.7,-663,791,86,1015.02,30.6,297.5
"2018-01-18 17:27:42+00",24.2,27.2,,29.9,-753,787,60,1014.81,30.8,295.6
"2018-01-18 17:32:42+00",27.4,30.4,,29.9,-908,813,57,1014.65,30.8,295.7
"2018-01-18 17:37:42+00",21.9,24.9,,29.9,-812,570,82,1014.46,30.8,295.5
"2018-01-18 17:42:42+00",21.8,24.8,,30.2,-691,688,67,1014.35,31,295
"2018-01-18 17:47:42+00",22.9,24.9,,30.2,-780,675,58,1014.22,31.2,291.2
"2018-01-18 17:52:42+00",22.9,25.9,,30.4,-758,683,82,1014.28,31.2,289.7
"2018-01-18 17:57:42+00",23.9,26.9,,30.5,-751,761,78,1014.13,31.4,289
"2018-01-18 18:02:42+00",22.5,25.5,,30.7,-726,704,54,1014,31.5,285.2
"2018-01-18 18:07:42+00",22.5,25.5,,31,-693,736,52,1013.97,31.7,282.8
"2018-01-18 18:12:42+00",21.6,24.6,,31.3,-706,673,58,1014,32.1,281.6
"2018-01-18 18:17:42+00",18.9,21.9,,31.2,-629,570,71,1013.95,32,279.5
"2018-01-18 18:22:42+00",17.9,20.9,,31.2,-625,508,90,1013.89,32.1,275.9
"2018-01-18 18:27:42+00",17.8,20.8,,31.3,-555,574,63,1013.88,32.2,272.3
"2018-01-18 18:32:42+00",17.2,19.2,,31.6,-609,478,48,1013.9,32.5,269
"2018-01-18 18:37:42+00",21.4,23.4,,31.9,-799,556,57,1013.8,32.7,265.8
"2018-01-18 18:42:42+00",21.8,25.8,,32,-804,568,56,1013.87,32.8,262.5
"2018-01-18 18:47:42+00",19.6,22.6,,32.1,-661,580,58,1013.9,32.8,258.1
"2018-01-18 18:52:42+00",21.2,23.2,,32.2,-690,645,43,1013.94,32.9,254.5
"2018-01-18 18:57:42+00",24.2,27.2,,32.3,-778,749,64,1013.91,32.9,250.4
"2018-01-18 19:02:42+00",23.8,26.8,,32.4,-780,722,66,1013.89,33,249.8
"2018-01-18 19:07:42+00",20.8,22.8,,32.6,-747,572,71,1013.85,33.1,240.6
"2018-01-18 19:12:42+00",20.1,22.1,,32.7,-684,583,62,1013.84,33.3,235.8
"2018-01-18 19:17:42+00",16.8,18.8,,32.8,-599,455,56,1013.7,33.6,232.7
"2018-01-18 19:22:42+00",21.4,25.4,,32.9,-859,425,87,1013.66,33.7,226.6
"2018-01-18 19:27:42+00",20.7,22.7,,33,-818,434,71,1013.58,33.6,218.1
"2018-01-18 19:32:42+00",18.2,21.2,,33.1,-733,357,38,1013.68,33.8,215.5
"2018-01-18 19:37:42+00",17.7,21.7,,33.2,-702,395,63,1013.71,33.9,209.2
"2018-01-18 19:42:42+00",15.3,18.3,,33,-623,350,76,1013.73,33.9,202.2
"2018-01-18 19:47:42+00",19.2,21.2,,33.1,-766,409,53,1013.66,34,193.3
"2018-01-18 19:52:42+00",21.9,23.9,,32.7,-926,344,65,1013.59,33.7,184.3
"2018-01-18 19:57:42+00",20.5,22.5,,33,-827,404,60,1013.63,33.6,177.8
"2018-01-18 20:02:42+00",16.5,20.5,,33.1,-636,387,44,1013.69,33.7,167.8
"2018-01-18 20:07:42+00",18.8,22.8,,33.3,-738,417,52,1013.72,34,158.6
"2018-01-18 20:12:42+00",18.4,21.4,,33.3,-730,376,54,1013.75,33.8,149.4
"2018-01-18 20:17:42+00",19.1,22.1,,33.3,-759,399,46,1013.73,33.8,140.7
"2018-01-18 20:22:42+00",20.0,22.0,,33.3,-795,412,49,1013.82,33.8,132.4
"2018-01-18 20:27:42+00",18.4,21.4,,33.3,-752,356,51,1013.95,33.7,122.4
"2018-01-18 20:32:42+00",19.0,22.0,,33.5,-730,440,55,1014.13,33.8,114.8
"2018-01-18 20:37:42+00",19.8,21.8,,33.3,-802,415,56,1014.03,33.6,106.2
"2018-01-18 20:42:42+00",20.8,24.8,,33.4,-771,535,48,1014.09,33.5,96.1
"2018-01-18 20:47:42+00",20.9,24.9,,33.4,-811,476,58,1014.04,33.4,85.9
"2018-01-18 20:52:42+00",18.2,20.2,,33.2,-697,409,64,1014.2,33.3,75.6
"2018-01-18 20:57:42+00",18.1,20.1,,33.4,-685,442,61,1014.29,33.2,66.4
"2018-01-18 21:02:42+00",21.7,25.7,,33.5,-791,572,32,1014.42,33.2,58.1
"2018-01-18 21:07:42+00",21.2,24.2,,33.4,-749,600,51,1014.5,33.1,46
"2018-01-18 21:12:42+00",17.1,19.1,,33.4,-673,400,55,1014.54,32.8,37.1
"2018-01-18 21:17:42+00",15.6,17.6,,33.1,-580,404,54,1014.45,32.5,27.8
"2018-01-18 21:22:42+00",19.4,21.4,,33.1,-703,518,52,1014.45,32.4,0
"2018-01-18 21:27:42+00",15.3,16.3,,32.9,-584,373,31,1014.58,32.2,0.1
"2018-01-18 21:32:42+00",14.2,16.2,,32.8,-563,309,27,1014.67,32,0
"2018-01-18 21:37:42+00",16.3,18.3,,32.9,-606,410,42,1014.81,31.9,0
"2018-01-18 21:42:42+00",15.2,17.2,,32.6,-574,373,37,1014.94,31.7,0
"2018-01-18 21:47:42+00",15.5,16.5,,32.4,-589,355,42,1015.09,31.5,0
"2018-01-18 21:52:42+00",16.0,18.0,,32.5,-604,384,41,1015.22,31.4,0
"2018-01-18 21:57:42+00",14.5,17.5,,32.3,-572,301,34,1015.25,31.1,0
"2018-01-18 22:02:42+00",13.2,15.2,,32.2,-519,271,31,1015.42,30.9,0
"2018-01-18 22:07:42+00",11.9,13.9,,32,-476,223,26,1015.44,30.7,0
"2018-01-18 22:12:42+00",10.8,11.8,,31.8,-432,219,27,1015.6,30.4,0
"2018-01-18 22:17:42+00",12.4,14.4,,31.9,-499,256,31,1015.7,30.3,0
"2018-01-18 22:22:42+00",12.7,13.7,,31.9,-514,243,32,1015.78,30.3,0
"2018-01-18 22:27:42+00",12.6,13.6,,31.9,-506,250,37,1015.82,30.3,0
"2018-01-18 22:32:42+00",12.0,13.0,,31.7,-468,267,32,1016.01,30.2,0
"2018-01-18 22:37:42+00",11.2,12.2,,31.6,-449,231,23,1016.14,30,0
"2018-01-18 22:42:42+00",9.2,10.2,,31.4,-373,175,23,1016.34,29.8,0
"2018-01-18 22:47:42+00",9.1,10.1,,31.3,-357,194,22,1016.46,29.4,0
"2018-01-18 22:52:42+00",10.5,11.5,,31,-418,205,22,1016.65,29,0
"2018-01-18 22:57:42+00",10.9,11.9,,31.3,-439,215,26,1016.76,29,0
"2018-01-18 23:02:42+00",9.6,10.6,,31.2,-380,197,22,1016.84,28.9,0
"2018-01-18 23:07:42+00",8.9,9.9,,31,-354,184,24,1017.03,28.6,0
"2018-01-18 23:12:42+00",7.7,7.7,,30.8,-314,140,21,1017.16,28.4,0
"2018-01-18 23:17:42+00",6.7,6.7,,30.3,-279,85,15,1017.3,28.4,0
"2018-01-18 23:22:42+00",6.2,7.2,,30.1,-257,87,11,1017.46,28.2,0
"2018-01-18 23:27:42+00",6.3,7.3,,30.1,-237,143,18,1017.44,28.2,0
"2018-01-18 23:32:42+00",7.6,8.6,,30.1,-285,172,15,1017.61,28,0
"2018-01-18 23:37:42+00",8.7,10.7,,30.1,-333,202,22,1017.61,27.9,0
"2018-01-18 23:42:42+00",8.7,9.7,,30.1,-311,229,24,1017.68,27.9,0
"2018-01-18 23:47:42+00",9.6,10.6,,30.2,-347,247,26,1017.82,28,0
"2018-01-18 23:52:42+00",8.7,9.7,,30.1,-285,251,28,1017.83,28.2,0
"2018-01-18 23:57:42+00",8.4,8.4,,29.9,-280,245,22,1017.87,28.2,0
